Location: Haram ta Haram Freeway
(35.0583°N, 51.4202°E)
Time: 14:22:53
(UTC+04:30)

CAS-4A - Pass Details

Date: 11 July 2020
Orbit: 528 x 545 km, 43.0° (Epoch: 02 August)

Event Time Altitude Azimuth Distance (km) Brightness Sun altitude
Exits shadow 03:56:43 17° 299° (WNW) 1,400 ? -20.5°
Maximum altitude 03:59:07 30° 350° (N) 986 ? -20.2°
Drops below altitude 10° 04:02:44 10° 52° (NE) 1,784 ? -19.7°
Sets 04:05:11 0° 64° (ENE) 2,672 ? -19.4°
